Volver al catálogo

COSMOS 2200

ActivoMilitarPO
NORAD 22037·PAYLOAD·🇷🇺 Russia

Lanzado Jul 13, 1992 desde Plesetsk Cosmodrome

Loading…

Próximos Pases (próximas 24 horas)

TLE

ActualizadoSource: Space-Track

Época: Sep 14, 2026, 04:34 UTC

1 22037U 92042D   26257.19050990  .00000038  00000-0  14869-3 0  9998
2 22037  82.5921 178.7394 0009155 102.5026  59.7584 12.63328362575447

Sigue COSMOS 2200 en tiempo real con AllMySat

Download on the App Store